Weather History for Coatesville, PA

Change the Weather History Date:

Tuesday, April 9, 2013

  Actual Average (KLNS) Record (KLNS)
Temperature  
Mean Temperature 70 °F -  
Max Temperature 80 °F 60 °F 86 °F (1991)
Min Temperature 59 °F 38 °F 25 °F (1985)
Cooling Degree Days 4    
Growing Degree Days 20 (Base 50)    
Moisture  
Dew Point 50 °F    
Average Humidity 49    
Maximum Humidity 72    
Minimum Humidity 30    
Precipitation  
Precipitation 0.00 in - - ()
Sea Level Pressure  
Sea Level Pressure 30.01 in    
Wind  
Wind Speed 7 mph (West)    
Max Wind Speed 23 mph    
Max Gust Speed 28 mph    
Visibility 10 miles    
Events      
Averages and records for this station are not official NWS values.
T = Trace of Precipitation, MM = Missing Value Source: NWS Daily Summary

Daily Weather History Graph

Daily Weather History Graph

Search for Another Location

Airport:

Trip Planner

Search our weather history database for the weather conditions in past years. The results will help you decide how hot, cold, wet, or windy it might be!

Date:

Astronomy

Apr. 09, 2013 Rise Set
Actual Time 6:34 AM EDT 7:36 PM EDT
Civil Twilight 6:06 AM EDT 8:03 PM EDT
Nautical Twilight 5:33 AM EDT 8:36 PM EDT
Astronomical Twilight 4:59 AM EDT 9:11 PM EDT
Moon 5:55 AM EDT (4/9) 7:09 PM EDT (4/9)
Length of Visible Light 13h 57m
Length of Day
13h 01m
Waning Crescent, 1% of the Moon is Illuminated
Apr 9
Waning Crescent
Apr 10
New
Apr 18
First Quarter
Apr 25
Full
May 2
Last Quarter

Hourly Weather History & Observations

Time (EDT) Temp. Dew Point Humidity Pressure Visibility Wind Dir Wind Speed Gust Speed Precip Events Conditions
12:15 AM 60.8 °F 50.0 °F 68% 29.99 in 10.0 mi South 4.6 mph - N/A   Clear
12:35 AM 62.6 °F 50.0 °F 63% 29.99 in 10.0 mi SSW 4.6 mph - N/A   Partly Cloudy
1:15 AM 62.6 °F 51.8 °F 68% 29.99 in 10.0 mi SSW 4.6 mph - N/A   Partly Cloudy
1:55 AM 62.6 °F 51.8 °F 68% 29.98 in 10.0 mi SSW 5.8 mph - N/A   Mostly Cloudy
2:15 AM 62.6 °F 51.8 °F 68% 29.97 in 10.0 mi SSW 5.8 mph - N/A   Mostly Cloudy
2:35 AM 62.6 °F 51.8 °F 68% 29.97 in 10.0 mi SW 3.5 mph - N/A   Scattered Clouds
2:55 AM 62.6 °F 51.8 °F 68% 29.98 in 10.0 mi Calm Calm - N/A   Scattered Clouds
3:15 AM 62.6 °F 50.0 °F 63% 29.98 in 10.0 mi Calm Calm - N/A   Mostly Cloudy
3:35 AM 60.8 °F 50.0 °F 68% 29.98 in 10.0 mi WSW 3.5 mph - N/A   Partly Cloudy
3:55 AM 62.6 °F 50.0 °F 63% 29.98 in 10.0 mi West 4.6 mph - N/A   Clear
4:35 AM 60.8 °F 50.0 °F 68% 29.98 in 10.0 mi WSW 3.5 mph - N/A   Clear
5:15 AM 60.8 °F 50.0 °F 68% 29.99 in 10.0 mi West 3.5 mph - N/A   Clear
5:35 AM 59.0 °F 50.0 °F 72% 29.99 in 10.0 mi West 4.6 mph - N/A   Clear
5:55 AM 60.8 °F 48.2 °F 63% 30.00 in 10.0 mi West 3.5 mph - N/A   Clear
6:15 AM 60.8 °F 48.2 °F 63% 30.01 in 10.0 mi Calm Calm - N/A   Clear
6:35 AM 60.8 °F 48.2 °F 63% 30.02 in 10.0 mi West 4.6 mph - N/A   Clear
6:55 AM 60.8 °F 48.2 °F 63% 30.02 in 10.0 mi SW 3.5 mph - N/A   Clear
7:15 AM 60.8 °F 48.2 °F 63% 30.03 in 10.0 mi WSW 3.5 mph - N/A   Clear
7:35 AM 60.8 °F 48.2 °F 63% 30.04 in 10.0 mi West 3.5 mph - N/A   Clear
8:15 AM 64.4 °F 48.2 °F 56% 30.05 in 10.0 mi WSW 4.6 mph - N/A   Clear
8:35 AM 66.2 °F 50.0 °F 56% 30.05 in 10.0 mi West 6.9 mph - N/A   Clear
8:55 AM 69.8 °F 48.2 °F 46% 30.04 in 10.0 mi West 6.9 mph - N/A   Clear
9:15 AM 71.6 °F 50.0 °F 46% 30.05 in 10.0 mi WNW 16.1 mph 19.6 mph N/A   Clear
9:55 AM 71.6 °F 51.8 °F 50% 30.05 in 10.0 mi WNW 16.1 mph 21.9 mph N/A   Clear
10:15 AM 73.4 °F 51.8 °F 47% 30.06 in 10.0 mi WNW 16.1 mph - N/A   Clear
10:35 AM 73.4 °F 51.8 °F 47% 30.06 in 10.0 mi WNW 23.0 mph 27.6 mph N/A   Clear
10:55 AM 75.2 °F 51.8 °F 44% 30.06 in 10.0 mi WNW 18.4 mph 25.3 mph N/A   Clear
11:15 AM 75.2 °F 51.8 °F 44% 30.06 in 10.0 mi West 18.4 mph 26.5 mph N/A   Clear
11:35 AM 75.2 °F 51.8 °F 44% 30.06 in 10.0 mi WNW 19.6 mph 25.3 mph N/A   Clear
11:55 AM 75.2 °F 50.0 °F 41% 30.06 in 10.0 mi West 18.4 mph 26.5 mph N/A   Clear
12:15 PM 77.0 °F 50.0 °F 39% 30.06 in 10.0 mi WNW 16.1 mph 24.2 mph N/A   Clear
12:35 PM 78.8 °F 51.8 °F 39% 30.05 in 10.0 mi WNW 17.3 mph 23.0 mph N/A   Clear
12:55 PM 78.8 °F 51.8 °F 39% 30.05 in 10.0 mi WNW 12.7 mph - N/A   Clear
1:15 PM 78.8 °F 48.2 °F 34% 30.05 in 10.0 mi WNW 18.4 mph 25.3 mph N/A   Clear
1:35 PM 78.8 °F 51.8 °F 39% 30.04 in 10.0 mi West 12.7 mph 18.4 mph N/A   Clear
1:55 PM 78.8 °F 48.2 °F 34% 30.04 in 10.0 mi WNW 18.4 mph 24.2 mph N/A   Clear
2:35 PM 80.6 °F 48.2 °F 32% 30.03 in 10.0 mi WNW 16.1 mph 25.3 mph N/A   Clear
2:55 PM 80.6 °F 48.2 °F 32% 30.02 in 10.0 mi WNW 12.7 mph 16.1 mph N/A   Clear
3:15 PM 80.6 °F 48.2 °F 32% 30.01 in 10.0 mi West 13.8 mph 19.6 mph N/A   Clear
3:55 PM 80.6 °F 48.2 °F 32% 30.00 in 10.0 mi WNW 10.4 mph 18.4 mph N/A   Clear
4:15 PM 80.6 °F 46.4 °F 30% 30.00 in 10.0 mi WNW 11.5 mph 16.1 mph N/A   Clear
4:35 PM 80.6 °F 48.2 °F 32% 29.99 in 10.0 mi West 6.9 mph - N/A   Clear
4:55 PM 80.6 °F 48.2 °F 32% 29.98 in 10.0 mi West 8.1 mph - N/A   Clear
5:15 PM 80.6 °F 50.0 °F 34% 29.99 in 10.0 mi West 10.4 mph - N/A   Clear
5:35 PM 80.6 °F 50.0 °F 34% 29.99 in 10.0 mi West 9.2 mph - N/A   Clear
5:55 PM 80.6 °F 50.0 °F 34% 29.99 in 10.0 mi West 6.9 mph - N/A   Clear
6:15 PM 80.6 °F 48.2 °F 32% 29.99 in 10.0 mi WNW 11.5 mph - N/A   Clear
6:35 PM 80.6 °F 48.2 °F 32% 29.99 in 10.0 mi West 5.8 mph - N/A   Clear
6:55 PM 78.8 °F 48.2 °F 34% 29.98 in 10.0 mi West 3.5 mph - N/A   Clear
7:15 PM 78.8 °F 48.2 °F 34% 29.99 in 10.0 mi Calm Calm - N/A   Clear
7:35 PM 77.0 °F 50.0 °F 39% 29.99 in 10.0 mi Calm Calm - N/A   Clear
7:55 PM 75.2 °F 51.8 °F 44% 29.99 in 10.0 mi Calm Calm - N/A   Clear
8:15 PM 75.2 °F 51.8 °F 44% 29.99 in 10.0 mi Calm Calm - N/A   Clear
8:35 PM 73.4 °F 51.8 °F 47% 29.99 in 10.0 mi Calm Calm - N/A   Clear
8:55 PM 71.6 °F 51.8 °F 50% 29.99 in 10.0 mi SSW 4.6 mph - N/A   Clear
9:15 PM 73.4 °F 51.8 °F 47% 30.00 in 10.0 mi SSW 3.5 mph - N/A   Clear
9:35 PM 71.6 °F 51.8 °F 50% 30.01 in 10.0 mi South 3.5 mph - N/A   Clear
9:55 PM 71.6 °F 51.8 °F 50% 30.00 in 10.0 mi Calm Calm - N/A   Partly Cloudy
10:15 PM 69.8 °F 51.8 °F 53% 29.99 in 10.0 mi South 4.6 mph - N/A   Partly Cloudy
10:35 PM 69.8 °F 51.8 °F 53% 29.98 in 10.0 mi South 4.6 mph - N/A   Clear
10:55 PM 69.8 °F 53.6 °F 56% 29.96 in 10.0 mi South 4.6 mph - N/A   Clear
11:15 PM 69.8 °F 53.6 °F 56% 29.95 in 10.0 mi SSW 4.6 mph - N/A   Clear
11:35 PM 68.0 °F 51.8 °F 56% 29.95 in 10.0 mi South 3.5 mph - N/A   Clear